sat.trackr.live / text

‹ back to catalog

STARLINK-5955

NORAD 56342 · 2023-058AB

PAYLOAD ACTIVE UNKNOWN

§ Identity

Operator
Country
US
Launch date
2023-04-27
Launch site
AFWTR
Launch vehicle
Mass (kg)
RCS (m²)

Purposes: comms

External: N2YO · Heavens-Above · Gunter

§ Orbital elements

Epoch: 2026-05-25T00:23:24.584928Z

Period
95.64 min
Inclination
97.4487°
Eccentricity
0.0002870
Mean motion
15.05660702 rev/d
Perigee alt
547.5 km
Apogee alt
551.5 km
Semi-major
6,927.6 km
B*
-1.5518e-4
RAAN
146.1171°
Arg perigee
92.5542°
Mean anomaly
267.6014°
Rev number
16,968

§ Raw data

STARLINK-59551 56342U 23058AB  26145.01625677 -.00002298  00000+0 -15518-3 0  99952 56342  97.4487 146.1171 0002870  92.5542 267.6014 15.05660702169684

JSON: /api/v1/satellites/56342 · /tle

For live sub-satellite position, see the globe view (requires WebGL).

§ Visibility from observer

Set your observer location to see the next 7 days of passes ≥ 10°. The values pass through the URL so the page stays shareable.

No JS? Fill the form by hand. The geolocation button needs JavaScript.